STARLINK-4046 (52842 NORAD) Tracking and Keplerian Element Data

This shows tracking and keplerian element data for the satellite.

Feedback or suggestion? Click here.




ElementValue
Catalog52842
NameSTARLINK-4046
Epoch Orbit1614
Epoch Day270.25001157
Epoch Year2022
RAAN287.9725
Inclination53.2168
Eccentricity0.000214
Argument of Perigee38.9331
Mean Anonmoly259.3992
Mean Motion15.08845742
Decay Rate-0.00019155
L11 52842U 22062N 22270.25001157 -.00019155 00000+0 -11884-2 0 9993
L22 52842 53.2168 287.9725 0002140 38.9331 259.3992 15.08845742 16147

Live tracking and technical data element details for STARLINK-4046 (NORAD 52842). STARLINK-4046 can be tracked NOW for your location showing map with azimuth and elevation plus other details from your city location.

Track the satellite on the map from your city or location and see movement details for azimuth, elevation, latitude, longitude, range, height, and movement on the map or in text.







IsCatalogInMostPopularTable: catalog: 52842, numindb: 8
Update: records affected: 1



GetName: 52842 STARLINK-4046

Hit Count: updated at: Thu, 06 Oct 2022 04:16:31 GMT